Krakow, Poland

2:54 AM CEST on September 27, 2016 (GMT +0200)
Krakow

Weather History for 12566 - August, 2013

Change the Weather History Date:

Sunday, August 4, 2013

  Actual Average Record
Temperature  
Mean Temperature 72 °F -  
Max Temperature 85 °F - - ()
Min Temperature 59 °F - - ()
Cooling Degree Days 7    
Growing Degree Days 22 (Base 50)    
Moisture  
Dew Point 54 °F    
Average Humidity 53    
Maximum Humidity 82    
Minimum Humidity 17    
Precipitation  
Precipitation 0.00 in - - ()
Sea Level Pressure  
Sea Level Pressure 30.12 in    
Wind  
Wind Speed 4 mph ()    
Max Wind Speed 12 mph    
Max Gust Speed -    
T = Trace of Precipitation, MM = Missing Value Source: Averaged Metar Reports

Daily Weather History Graph

Daily Weather History Graph

Search for Another Location

Airport or City:

Trip Planner

Search our weather history database for the weather conditions in past years. The results will help you decide how hot, cold, wet, or windy it might be!

Date:

Astronomy

Aug. 04, 2013 Rise Set
Actual Time 5:14 AM CEST 8:18 PM CEST
Civil Twilight 4:35 AM CEST 8:56 PM CEST
Nautical Twilight 3:46 AM CEST 9:46 PM CEST
Astronomical Twilight 2:42 AM CEST 10:48 PM CEST
Moon 2:56 AM CEST (8/4) 6:30 PM CEST (8/4)
Length of Visible Light 16h 20m
Length of Day
15h 04m
Waning Crescent, 6% of the Moon is Illuminated
Aug 4
Waning Crescent
Aug 6
New
Aug 14
First Quarter
Aug 21
Full
Aug 28
Last Quarter

Hourly Weather History & Observations

Time (CEST) Temp. Heat Index Dew Point Humidity Pressure Visibility Wind Dir Wind Speed Gust Speed Precip Events Conditions
12:00 AM 68.0 °F - 57.2 °F 68% 30.09 in - NE 1.2 mph - N/A   Clear
12:30 AM 68.0 °F - 55.4 °F 64% 30.09 in - NE 1.2 mph - N/A   Clear
1:00 AM 68.0 °F - 55.4 °F 64% 30.09 in - North 4.6 mph - N/A   Clear
1:30 AM 64.4 °F - 55.4 °F 73% 30.09 in - NE 4.6 mph - N/A   Clear
2:00 AM 63 °F - 55 °F 67% 30.10 in 31 mi NNE 6.7 mph - -  
2:00 AM 64.4 °F - 55.4 °F 73% 30.09 in - NE 6.9 mph - N/A   Clear
2:30 AM 62.6 °F - 55.4 °F 77% 30.09 in - NE 5.8 mph - N/A   Clear
3:00 AM 62.6 °F - 53.6 °F 72% 30.09 in - NNE 4.6 mph - N/A   Clear
3:30 AM 60.8 °F - 53.6 °F 77% 30.09 in - NNE 4.6 mph - N/A   Clear
4:00 AM 60.8 °F - 53.6 °F 77% 30.09 in - NE 6.9 mph - N/A   Clear
4:30 AM 60.8 °F - 53.6 °F 77% 30.09 in - East 3.5 mph - N/A   Clear
5:00 AM 62 °F - 53 °F 65% 30.12 in 31 mi ENE 2.2 mph - -   Clear
5:00 AM 60.8 °F - 53.6 °F 77% 30.12 in - ENE 2.3 mph - N/A   Clear
5:30 AM 59.0 °F - 51.8 °F 77% 30.12 in - Calm Calm - N/A   Clear
6:00 AM 59.0 °F - 53.6 °F 82% 30.12 in - NNE 3.5 mph - N/A   Clear
6:30 AM 62.6 °F - 55.4 °F 77% 30.12 in - NNE 3.5 mph - N/A   Clear
7:00 AM 64.4 °F - 55.4 °F 73% 30.12 in - NE 3.5 mph - N/A   Clear
7:30 AM 66.2 °F - 55.4 °F 68% 30.12 in - NE 4.6 mph - N/A   Clear
8:00 AM 68 °F - 57 °F 59% 30.13 in 25 mi NE 6.7 mph - -   Scattered Clouds
8:00 AM 68.0 °F - 55.4 °F 64% 30.12 in - ENE 6.9 mph - N/A   Clear
8:30 AM 69.8 °F - 57.2 °F 64% 30.12 in - NE 5.8 mph - N/A   Clear
9:00 AM 71.6 °F - 57.2 °F 60% 30.15 in - NE 5.8 mph - N/A   Clear
9:30 AM 75.2 °F - 57.2 °F 53% 30.15 in - NE 6.9 mph - N/A   Clear
10:00 AM 77.0 °F - 55.4 °F 47% 30.18 in - NE 6.9 mph - N/A   Clear
10:30 AM 78.8 °F - 51.8 °F 39% 30.18 in - East 8.1 mph - N/A   Clear
11:00 AM 81 °F - 52 °F 26% 30.15 in 31 mi NE 11.2 mph - -   Clear
11:00 AM 80.6 °F 80.3 °F 53.6 °F 39% 30.18 in - ENE 10.4 mph - N/A   Clear
11:30 AM 82.4 °F - 51.8 °F 35% 30.18 in - East 11.5 mph - N/A   Clear
12:00 PM 82.4 °F - 50.0 °F 32% 30.15 in - ENE 10.4 mph - N/A   Clear
12:30 PM 82.4 °F - 48.2 °F 30% 30.15 in - ENE 9.2 mph - N/A   Clear
1:00 PM 84.2 °F - 50.0 °F 30% 30.15 in - East 8.1 mph - N/A   Clear
1:30 PM 84.2 °F - 50.0 °F 30% 30.15 in - East 5.8 mph - N/A   Clear
2:00 PM 84 °F - 46 °F 17% 30.13 in 31 mi ESE 6.7 mph - -   Scattered Clouds
2:00 PM 84.2 °F - 46.4 °F 27% 30.15 in - ESE 5.8 mph - N/A   Clear
2:30 PM 86.0 °F - 51.8 °F 31% 30.15 in - Variable 4.6 mph - N/A   Clear
3:00 PM 84.2 °F - 50.0 °F 30% 30.15 in - NE 5.8 mph - N/A   Clear
3:30 PM 82.4 °F - 50.0 °F 32% 30.15 in - NNE 5.8 mph - N/A   Clear
4:00 PM 82.4 °F - 48.2 °F 30% 30.15 in - NNE 3.5 mph - N/A   Clear
4:30 PM 82.4 °F - 51.8 °F 35% 30.15 in - ENE 6.9 mph - N/A   Clear
5:00 PM 84 °F - 50 °F 20% 30.10 in 31 mi NE 6.7 mph - -   Mostly Cloudy
5:00 PM 84.2 °F - 51.8 °F 33% 30.12 in - ENE 6.9 mph - N/A   Clear
5:30 PM 82.4 °F - 50.0 °F 32% 30.12 in - East 8.1 mph - N/A   Clear
6:00 PM 84.2 °F - 50.0 °F 30% 30.12 in - East 5.8 mph - N/A   Clear
6:30 PM 82.4 °F - 50.0 °F 32% 30.09 in - ESE 5.8 mph - N/A   Clear
7:00 PM 82.4 °F - 50.0 °F 32% 30.09 in - ESE 5.8 mph - N/A   Clear
7:30 PM 78.8 °F - 53.6 °F 42% 30.09 in - East 3.5 mph - N/A   Clear
8:00 PM 76 °F - 57 °F 41% 30.08 in 25 mi NNE 4.5 mph - -   Scattered Clouds
8:00 PM 77.0 °F - 57.2 °F 50% 30.09 in - NE 3.5 mph - N/A   Clear
8:30 PM 75.2 °F - 55.4 °F 50% 30.09 in - Variable 2.3 mph - N/A   Clear
9:00 PM 68.0 °F - 59.0 °F 73% 30.09 in - Calm Calm - N/A   Clear
9:30 PM 69.8 °F - 57.2 °F 64% 30.12 in - Calm Calm - N/A   Clear
10:00 PM 66.2 °F - 57.2 °F 73% 30.12 in - Variable 2.3 mph - N/A   Clear
10:30 PM 66.2 °F - 57.2 °F 73% 30.12 in - NE 3.5 mph - N/A   Clear
11:00 PM 68 °F - 56 °F 56% 30.13 in 31 mi NE 2.2 mph - -   Mostly Cloudy
11:00 PM 68.0 °F - 57.2 °F 68% 30.12 in - Variable 1.2 mph - N/A   Clear
11:30 PM 66.2 °F - 57.2 °F 73% 30.15 in - Calm Calm - N/A   Clear